カタログに戻る

CZ-12B R/B

運用中PO
NORAD 69327·ROCKET BODY·🇨🇳 China

打ち上げ Jun 1, 2026 から Jiuquan Satellite Launch Center

Loading…

次のパス (今後24時間)

TLE

最新Source: Space-Track

元期: Sep 14, 2026, 12:36 UTC

1 69327U 26121C   26257.52523912  .00000026  00000-0  50966-5 0  9999
2 69327  89.0264 290.8545 0196650  82.5994 279.7486 14.04120518 14762

AllMySatでCZ-12B R/Bをリアルタイム追跡

Download on the App Store